Home   Weather   West Bromwich   Past weeks

Flag for United Kingdom Past Weather in West Bromwich, England, United Kingdom — Yesterday and Last 2 Weeks

Now
46 °F

Passing clouds.


Feels Like: 44 °F
Forecast: N/A
Wind: 6 mph from Southwest

Location: Birmingham / Airport

Current Time: Jan 24, 2017 at 3:30:22 pm

Latest Report: Jan 24, 2017 at 2:50 pm


Visibility: N/A

Pressure: 30.30 "Hg

Humidity: 82%

Dew Point: 41 °F

Location of West BromwichLocation

Past Weather in West Bromwich — Graph

°F

West Bromwich Temperature Yesterday

Maximum temperature yesterday: 43 °F (at 11:20 am)
Minimum temperature yesterday: 34 °F (at 12:20 am)
Average temperature yesterday: 39 °F

High & Low Weather Summary for the Past Weeks

 TemperatureHumidityPressure
High52 °F (Jan 11, 5:20 am)100% (Jan 9, 2:50 pm)30.66 "Hg (Jan 9, 2:50 pm)
Low27 °F (Jan 22, 1:20 am)53% (Jan 11, 2:20 pm)29.42 "Hg (Jan 12, 5:50 pm)
Average40 °F93%30.21 "Hg
* Reported Jan 9 2:20 pm — Jan 24 2:20 pm, West Bromwich, Weather by CustomWeather, © 2017

Note: Actual official high and low records may vary slightly from our data, if they occured in-between our weather recording intervals... More about our weather records

Advertising

West Bromwich Weather History for the Previous 24 Hours

Scroll right to see more
 ConditionsComfort  
Time TempWeatherWind HumidityBarometerVisibility
2:20 pm
Tue, Jan 24
46 °FScattered clouds.6 mph82%30.30 "HgN/A
1:50 pm46 °FScattered clouds.6 mph82%30.30 "HgN/A
1:20 pm45 °FScattered clouds.5 mph87%30.30 "HgN/A
12:50 pm45 °FPartly sunny.3 mph87%30.33 "HgN/A
12:20 pm45 °FPassing clouds.5 mph87%30.33 "HgN/A
11:50 am43 °FPassing clouds.6 mph87%30.33 "HgN/A
11:20 am43 °FPassing clouds.7 mph87%30.33 "HgN/A
10:50 am41 °FPassing clouds.6 mph100%30.33 "HgN/A
10:20 am37 °FClear.3 mph100%30.33 "Hg4 mi
9:50 am34 °FSleet. Fog.3 mph100%30.33 "Hg3 mi
9:20 am32 °FSleet. Cloudy.5 mph100%30.33 "Hg1 mi
8:50 am32 °FIce fog.5 mph100%30.30 "Hg0 mi
8:20 am32 °FFog.3 mph100%30.30 "Hg0 mi
7:50 am34 °FFog.2 mph100%30.30 "Hg0 mi
7:20 am34 °FFog.3 mph100%30.30 "Hg0 mi
6:50 am34 °FFog.5 mph100%30.30 "Hg0 mi
6:20 am34 °FFog.6 mph100%30.30 "Hg0 mi
5:50 am32 °FIce fog.5 mph100%30.27 "Hg2 mi
5:20 am34 °FFog.3 mph100%30.27 "Hg2 mi
4:50 am36 °FFog.6 mph100%30.27 "Hg3 mi
4:20 am36 °FClear.6 mph100%30.27 "Hg4 mi
3:50 am36 °FClear.6 mph100%30.27 "Hg6 mi
3:20 am36 °FClear.5 mph100%30.30 "Hg10 mi
2:50 am36 °FClear.7 mph100%30.30 "Hg10 mi
2:20 am36 °FClear.5 mph100%30.30 "Hg10 mi
1:50 am37 °FClear.5 mph93%30.30 "Hg10 mi
1:20 am37 °FClear.6 mph93%30.30 "Hg10 mi
12:50 am37 °FClear.6 mph87%30.30 "Hg10 mi
12:20 am36 °FPassing clouds.5 mph93%30.30 "HgN/A
11:50 pm
Mon, Jan 23
34 °FClear.2 mph100%30.30 "Hg10 mi
11:20 pm36 °FClear.2 mph93%30.30 "Hg10 mi
10:50 pm36 °FClear.5 mph100%30.30 "Hg10 mi
10:20 pm39 °FClear.3 mph93%30.30 "Hg10 mi
9:50 pm39 °FClear.2 mph100%30.30 "Hg10 mi
9:20 pm39 °FClear.3 mph100%30.30 "Hg6 mi
8:50 pm41 °FClear.5 mph93%30.30 "Hg6 mi
8:20 pm43 °FClear.5 mph93%30.30 "Hg6 mi
7:50 pm41 °FClear.3 mph100%30.30 "Hg6 mi
7:20 pm39 °FClear.3 mph100%30.30 "Hg4 mi
6:50 pm41 °FClear.3 mph100%30.30 "Hg4 mi
6:20 pm41 °FClear.2 mph100%30.30 "Hg4 mi
5:50 pm43 °FPassing clouds.3 mph93%30.33 "Hg4 mi
5:20 pm43 °FPartly cloudy.3 mph93%30.30 "Hg5 mi
4:50 pm43 °FClear.3 mph93%30.30 "Hg4 mi
4:20 pm43 °FPartly sunny.2 mph93%30.30 "Hg4 mi
3:50 pm43 °FPartly sunny.3 mph93%30.30 "Hg4 mi
3:20 pm43 °FPartly sunny.3 mph93%30.30 "Hg4 mi
Weather by CustomWeather, © 2017

See weather overviewHow to use our weather pages